owner,sensor,date,latitude,longitude,vertical_datum,sea_water_practical_salinity,qcFlag 
DISL,ioos:station:DISL:DISL:1,2011-04-01T00:00:00Z,30.2513,-88.0778,6.43,6.96,1111122 
DISL,ioos:station:DISL:DISL:1,2011-04-01T00:30:00Z,30.2513,-88.0778,6.52,6.97,1111122 
DISL,ioos:station:DISL:DISL:1,2011-04-01T01:00:00Z,30.2513,-88.0778,6.526,7.22,1111122 
DISL,ioos:station:DISL:DISL:1,2011-04-01T01:30:00Z,30.2513,-88.0778,6.527,7.59,1111122 
DISL,ioos:station:DISL:DISL:1,2011-04-01T02:00:00Z,30.2513,-88.0778,6.558,9.03,1111122 
DISL,ioos:station:DISL:DISL:1,2011-04-01T02:30:00Z,30.2513,-88.0778,6.576,10.07,1111122 
DISL,ioos:station:DISL:DISL:1,2011-04-01T03:00:00Z,30.2513,-88.0778,6.621,10.77,1111122 
DISL,ioos:station:DISL:DISL:1,2011-04-01T03:30:00Z,30.2513,-88.0778,6.64,10.95,1111122 
DISL,ioos:station:DISL:DISL:1,2011-04-01T04:00:00Z,30.2513,-88.0778,6.659,10.99,1111122 
DISL,ioos:station:DISL:DISL:1,2011-04-01T04:30:00Z,30.2513,-88.0778,6.688,11.13,1111122 
DISL,ioos:station:DISL:DISL:1,2011-04-01T05:00:00Z,30.2513,-88.0778,6.769,11.0,1111122 
DISL,ioos:station:DISL:DISL:1,2011-04-01T05:30:00Z,30.2513,-88.0778,6.646,10.81,1111122 
DISL,ioos:station:DISL:DISL:1,2011-04-01T06:00:00Z,30.2513,-88.0778,6.654,10.61,1111122 
DISL,ioos:station:DISL:DISL:1,2011-04-01T06:30:00Z,30.2513,-88.0778,6.669,10.45,1111122 
DISL,ioos:station:DISL:DISL:1,2011-04-01T07:00:00Z,30.2513,-88.0778,6.539,10.42,1111122 
DISL,ioos:station:DISL:DISL:1,2011-04-01T07:30:00Z,30.2513,-88.0778,6.511,8.44,1111122 
DISL,ioos:station:DISL:DISL:1,2011-04-01T08:00:00Z,30.2513,-88.0778,6.521,10.36,1111122 
DISL,ioos:station:DISL:DISL:1,2011-04-01T08:30:00Z,30.2513,-88.0778,6.419,7.06,1111122 
DISL,ioos:station:DISL:DISL:1,2011-04-01T09:00:00Z,30.2513,-88.0778,6.468,6.3,1111122 
DISL,ioos:station:DISL:DISL:1,2011-04-01T09:30:00Z,30.2513,-88.0778,6.469,6.71,1111122 
DISL,ioos:station:DISL:DISL:1,2011-04-01T10:00:00Z,30.2513,-88.0778,6.389,6.6,1111122 
DISL,ioos:station:DISL:DISL:1,2011-04-01T10:30:00Z,30.2513,-88.0778,6.449,5.93,1111122 
DISL,ioos:station:DISL:DISL:1,2011-04-01T11:00:00Z,30.2513,-88.0778,6.461,5.61,1111122 
DISL,ioos:station:DISL:DISL:1,2011-04-01T11:30:00Z,30.2513,-88.0778,6.512,5.91,1111122 
DISL,ioos:station:DISL:DISL:1,2011-04-01T12:00:00Z,30.2513,-88.0778,6.521,6.35,1111122 
DISL,ioos:station:DISL:DISL:1,2011-04-01T12:30:00Z,30.2513,-88.0778,6.423,6.4,1111122 
DISL,ioos:station:DISL:DISL:1,2011-04-01T13:00:00Z,30.2513,-88.0778,6.467,6.89,1111122 
DISL,ioos:station:DISL:DISL:1,2011-04-01T13:30:00Z,30.2513,-88.0778,6.405,7.97,1111122 
DISL,ioos:station:DISL:DISL:1,2011-04-01T14:00:00Z,30.2513,-88.0778,6.507,9.26,1111122 
DISL,ioos:station:DISL:DISL:1,2011-04-01T14:30:00Z,30.2513,-88.0778,6.511,9.67,1111122 
DISL,ioos:station:DISL:DISL:1,2011-04-01T15:00:00Z,30.2513,-88.0778,6.517,9.74,1111122 
DISL,ioos:station:DISL:DISL:1,2011-04-01T15:30:00Z,30.2513,-88.0778,6.47,9.78,1111122 
DISL,ioos:station:DISL:DISL:1,2011-04-01T16:00:00Z,30.2513,-88.0778,6.493,9.79,1111122 
DISL,ioos:station:DISL:DISL:1,2011-04-01T16:30:00Z,30.2513,-88.0778,6.505,9.8,1111122 
DISL,ioos:station:DISL:DISL:1,2011-04-01T17:00:00Z,30.2513,-88.0778,6.441,9.78,1111122 
DISL,ioos:station:DISL:DISL:1,2011-04-01T17:30:00Z,30.2513,-88.0778,6.331,9.78,1111122 
DISL,ioos:station:DISL:DISL:1,2011-04-01T18:00:00Z,30.2513,-88.0778,6.299,9.76,1111122 
DISL,ioos:station:DISL:DISL:1,2011-04-01T18:30:00Z,30.2513,-88.0778,6.258,9.76,1111122 
DISL,ioos:station:DISL:DISL:1,2011-04-01T19:00:00Z,30.2513,-88.0778,6.225,9.73,1111122 
DISL,ioos:station:DISL:DISL:1,2011-04-01T19:30:00Z,30.2513,-88.0778,6.177,9.74,1111122 
DISL,ioos:station:DISL:DISL:1,2011-04-01T20:00:00Z,30.2513,-88.0778,6.16,9.81,1111122 
DISL,ioos:station:DISL:DISL:1,2011-04-01T20:30:00Z,30.2513,-88.0778,6.068,9.74,1111122 
DISL,ioos:station:DISL:DISL:1,2011-04-01T21:00:00Z,30.2513,-88.0778,6.009,9.77,1111122 
DISL,ioos:station:DISL:DISL:1,2011-04-01T21:30:00Z,30.2513,-88.0778,6.044,9.79,1111122 
DISL,ioos:station:DISL:DISL:1,2011-04-01T22:00:00Z,30.2513,-88.0778,6.053,9.73,1111122 
DISL,ioos:station:DISL:DISL:1,2011-04-01T22:30:00Z,30.2513,-88.0778,5.976,9.71,1111122 
DISL,ioos:station:DISL:DISL:1,2011-04-01T23:00:00Z,30.2513,-88.0778,6.049,9.65,1111122 
DISL,ioos:station:DISL:DISL:1,2011-04-01T23:30:00Z,30.2513,-88.0778,5.989,9.67,1111122 
DISL,ioos:station:DISL:DISL:1,2011-04-02T00:00:00Z,30.2513,-88.0778,6.033,9.64,1111122 
DISL,ioos:station:DISL:DISL:1,2011-04-02T00:30:00Z,30.2513,-88.0778,6.045,9.66,1111122 
DISL,ioos:station:DISL:DISL:1,2011-04-02T01:00:00Z,30.2513,-88.0778,6.139,9.56,1111122 
DISL,ioos:station:DISL:DISL:1,2011-04-02T01:30:00Z,30.2513,-88.0778,6.153,9.5,1111122 
DISL,ioos:station:DISL:DISL:1,2011-04-02T02:00:00Z,30.2513,-88.0778,6.155,9.54,1111122 
DISL,ioos:station:DISL:DISL:1,2011-04-02T02:30:00Z,30.2513,-88.0778,6.153,9.54,1111122 
DISL,ioos:station:DISL:DISL:1,2011-04-02T03:00:00Z,30.2513,-88.0778,6.205,9.53,1111122 
DISL,ioos:station:DISL:DISL:1,2011-04-02T03:30:00Z,30.2513,-88.0778,6.249,9.54,1111122 
DISL,ioos:station:DISL:DISL:1,2011-04-02T04:00:00Z,30.2513,-88.0778,6.241,9.53,1111122 
DISL,ioos:station:DISL:DISL:1,2011-04-02T04:30:00Z,30.2513,-88.0778,6.235,9.53,1111122 
DISL,ioos:station:DISL:DISL:1,2011-04-02T05:00:00Z,30.2513,-88.0778,6.322,9.52,1111122 
DISL,ioos:station:DISL:DISL:1,2011-04-02T05:30:00Z,30.2513,-88.0778,6.251,9.54,1111122 
DISL,ioos:station:DISL:DISL:1,2011-04-02T06:00:00Z,30.2513,-88.0778,6.273,9.54,1111122 
DISL,ioos:station:DISL:DISL:1,2011-04-02T06:30:00Z,30.2513,-88.0778,6.253,9.46,1111122 
DISL,ioos:station:DISL:DISL:1,2011-04-02T07:00:00Z,30.2513,-88.0778,6.234,9.42,1111122 
DISL,ioos:station:DISL:DISL:1,2011-04-02T07:30:00Z,30.2513,-88.0778,6.233,9.41,1111122 
DISL,ioos:station:DISL:DISL:1,2011-04-02T08:00:00Z,30.2513,-88.0778,6.158,9.35,1111122 
DISL,ioos:station:DISL:DISL:1,2011-04-02T08:30:00Z,30.2513,-88.0778,6.234,9.31,1111122 
DISL,ioos:station:DISL:DISL:1,2011-04-02T09:00:00Z,30.2513,-88.0778,6.224,7.95,1111122 
DISL,ioos:station:DISL:DISL:1,2011-04-02T09:30:00Z,30.2513,-88.0778,6.192,7.66,1111122 
DISL,ioos:station:DISL:DISL:1,2011-04-02T10:00:00Z,30.2513,-88.0778,6.242,7.57,1111122 
DISL,ioos:station:DISL:DISL:1,2011-04-02T10:30:00Z,30.2513,-88.0778,6.213,7.51,1111122 
DISL,ioos:station:DISL:DISL:1,2011-04-02T11:00:00Z,30.2513,-88.0778,6.227,7.74,1111122 
DISL,ioos:station:DISL:DISL:1,2011-04-02T11:30:00Z,30.2513,-88.0778,6.274,7.8,1111122 
DISL,ioos:station:DISL:DISL:1,2011-04-02T12:00:00Z,30.2513,-88.0778,6.214,7.73,1111122 
DISL,ioos:station:DISL:DISL:1,2011-04-02T12:30:00Z,30.2513,-88.0778,6.277,7.76,1111122 
DISL,ioos:station:DISL:DISL:1,2011-04-02T13:00:00Z,30.2513,-88.0778,6.266,7.97,1111122 
DISL,ioos:station:DISL:DISL:1,2011-04-02T13:30:00Z,30.2513,-88.0778,6.263,7.84,1111122 
DISL,ioos:station:DISL:DISL:1,2011-04-02T14:00:00Z,30.2513,-88.0778,6.242,7.99,1111122 
DISL,ioos:station:DISL:DISL:1,2011-04-02T14:30:00Z,30.2513,-88.0778,6.237,8.11,1111122 
DISL,ioos:station:DISL:DISL:1,2011-04-02T15:00:00Z,30.2513,-88.0778,6.214,8.26,1111122 
DISL,ioos:station:DISL:DISL:1,2011-04-02T15:30:00Z,30.2513,-88.0778,6.219,8.74,1111122 
DISL,ioos:station:DISL:DISL:1,2011-04-02T16:00:00Z,30.2513,-88.0778,6.2,9.03,1111122 
DISL,ioos:station:DISL:DISL:1,2011-04-02T16:30:00Z,30.2513,-88.0778,6.287,9.01,1111122 
DISL,ioos:station:DISL:DISL:1,2011-04-02T17:00:00Z,30.2513,-88.0778,6.172,8.91,1111122 
DISL,ioos:station:DISL:DISL:1,2011-04-02T17:30:00Z,30.2513,-88.0778,6.196,6.14,1111122 
DISL,ioos:station:DISL:DISL:1,2011-04-02T18:00:00Z,30.2513,-88.0778,6.134,6.21,1111122 
DISL,ioos:station:DISL:DISL:1,2011-04-02T18:30:00Z,30.2513,-88.0778,6.1,8.79,1111122 
DISL,ioos:station:DISL:DISL:1,2011-04-02T19:00:00Z,30.2513,-88.0778,5.977,8.63,1111122 
DISL,ioos:station:DISL:DISL:1,2011-04-02T19:30:00Z,30.2513,-88.0778,6.003,8.9,1111122 
DISL,ioos:station:DISL:DISL:1,2011-04-02T20:00:00Z,30.2513,-88.0778,5.858,9.1,1111122 
DISL,ioos:station:DISL:DISL:1,2011-04-02T20:30:00Z,30.2513,-88.0778,5.88,9.11,1111122 
DISL,ioos:station:DISL:DISL:1,2011-04-02T21:00:00Z,30.2513,-88.0778,5.809,9.11,1111122 
DISL,ioos:station:DISL:DISL:1,2011-04-02T21:30:00Z,30.2513,-88.0778,5.827,8.94,1111122 
DISL,ioos:station:DISL:DISL:1,2011-04-02T22:00:00Z,30.2513,-88.0778,5.783,8.24,1111122 
DISL,ioos:station:DISL:DISL:1,2011-04-02T22:30:00Z,30.2513,-88.0778,5.773,8.06,1111122 
DISL,ioos:station:DISL:DISL:1,2011-04-02T23:00:00Z,30.2513,-88.0778,5.762,8.14,1111122 
DISL,ioos:station:DISL:DISL:1,2011-04-02T23:30:00Z,30.2513,-88.0778,5.695,8.21,1111122 
DISL,ioos:station:DISL:DISL:1,2011-04-03T00:00:00Z,30.2513,-88.0778,5.719,8.31,1111122 
DISL,ioos:station:DISL:DISL:1,2011-04-03T00:30:00Z,30.2513,-88.0778,5.76,8.31,1111122 
DISL,ioos:station:DISL:DISL:1,2011-04-03T01:00:00Z,30.2513,-88.0778,5.782,8.54,1111122 
DISL,ioos:station:DISL:DISL:1,2011-04-03T01:30:00Z,30.2513,-88.0778,5.886,8.69,1111122 
DISL,ioos:station:DISL:DISL:1,2011-04-03T02:00:00Z,30.2513,-88.0778,5.702,8.62,1111122 
DISL,ioos:station:DISL:DISL:1,2011-04-03T02:30:00Z,30.2513,-88.0778,5.808,8.65,1111122 
DISL,ioos:station:DISL:DISL:1,2011-04-03T03:00:00Z,30.2513,-88.0778,5.843,8.7,1111122 
DISL,ioos:station:DISL:DISL:1,2011-04-03T03:30:00Z,30.2513,-88.0778,5.855,8.75,1111122 
DISL,ioos:station:DISL:DISL:1,2011-04-03T04:00:00Z,30.2513,-88.0778,5.908,8.54,1111122 
DISL,ioos:station:DISL:DISL:1,2011-04-03T04:30:00Z,30.2513,-88.0778,5.888,8.5,1111122 
DISL,ioos:station:DISL:DISL:1,2011-04-03T05:00:00Z,30.2513,-88.0778,5.942,8.35,1111122 
DISL,ioos:station:DISL:DISL:1,2011-04-03T05:30:00Z,30.2513,-88.0778,5.977,8.35,1111122 
DISL,ioos:station:DISL:DISL:1,2011-04-03T06:00:00Z,30.2513,-88.0778,5.989,8.72,1111122 
DISL,ioos:station:DISL:DISL:1,2011-04-03T06:30:00Z,30.2513,-88.0778,6.057,8.8,1111122 
DISL,ioos:station:DISL:DISL:1,2011-04-03T07:00:00Z,30.2513,-88.0778,6.077,8.83,1111122 
DISL,ioos:station:DISL:DISL:1,2011-04-03T07:30:00Z,30.2513,-88.0778,6.104,8.84,1111122 
DISL,ioos:station:DISL:DISL:1,2011-04-03T08:00:00Z,30.2513,-88.0778,6.109,8.85,1111122 
DISL,ioos:station:DISL:DISL:1,2011-04-03T08:30:00Z,30.2513,-88.0778,6.117,8.86,1111122 
DISL,ioos:station:DISL:DISL:1,2011-04-03T09:00:00Z,30.2513,-88.0778,6.098,8.85,1111122 
DISL,ioos:station:DISL:DISL:1,2011-04-03T09:30:00Z,30.2513,-88.0778,6.084,8.84,1111122 
DISL,ioos:station:DISL:DISL:1,2011-04-03T10:00:00Z,30.2513,-88.0778,6.118,8.81,1111122 
DISL,ioos:station:DISL:DISL:1,2011-04-03T10:30:00Z,30.2513,-88.0778,6.151,7.72,1111122 
DISL,ioos:station:DISL:DISL:1,2011-04-03T11:00:00Z,30.2513,-88.0778,6.224,7.77,1111122 
DISL,ioos:station:DISL:DISL:1,2011-04-03T11:30:00Z,30.2513,-88.0778,6.191,7.55,1111122 
DISL,ioos:station:DISL:DISL:1,2011-04-03T12:00:00Z,30.2513,-88.0778,6.258,7.77,1111122 
DISL,ioos:station:DISL:DISL:1,2011-04-03T12:30:00Z,30.2513,-88.0778,6.317,8.18,1111122 
DISL,ioos:station:DISL:DISL:1,2011-04-03T13:00:00Z,30.2513,-88.0778,6.335,8.35,1111122 
DISL,ioos:station:DISL:DISL:1,2011-04-03T13:30:00Z,30.2513,-88.0778,6.32,8.35,1111122 
DISL,ioos:station:DISL:DISL:1,2011-04-03T14:00:00Z,30.2513,-88.0778,6.323,8.32,1111122 
DISL,ioos:station:DISL:DISL:1,2011-04-03T14:30:00Z,30.2513,-88.0778,6.36,8.16,1111122 
DISL,ioos:station:DISL:DISL:1,2011-04-03T15:00:00Z,30.2513,-88.0778,6.362,8.03,1111122 
DISL,ioos:station:DISL:DISL:1,2011-04-03T15:30:00Z,30.2513,-88.0778,6.483,7.95,1111122 
DISL,ioos:station:DISL:DISL:1,2011-04-03T16:00:00Z,30.2513,-88.0778,6.361,8.44,1111122 
DISL,ioos:station:DISL:DISL:1,2011-04-03T16:30:00Z,30.2513,-88.0778,6.347,8.48,1111122 
DISL,ioos:station:DISL:DISL:1,2011-04-03T17:00:00Z,30.2513,-88.0778,6.404,8.27,1111122 
DISL,ioos:station:DISL:DISL:1,2011-04-03T17:30:00Z,30.2513,-88.0778,6.304,7.97,1111122 
DISL,ioos:station:DISL:DISL:1,2011-04-03T18:00:00Z,30.2513,-88.0778,6.259,7.87,1111122 
DISL,ioos:station:DISL:DISL:1,2011-04-03T18:30:00Z,30.2513,-88.0778,6.249,7.82,1111122 
DISL,ioos:station:DISL:DISL:1,2011-04-03T19:00:00Z,30.2513,-88.0778,6.12,7.81,1111122 
DISL,ioos:station:DISL:DISL:1,2011-04-03T19:30:00Z,30.2513,-88.0778,6.073,7.83,1111122 
DISL,ioos:station:DISL:DISL:1,2011-04-03T20:00:00Z,30.2513,-88.0778,5.989,7.91,1111122 
DISL,ioos:station:DISL:DISL:1,2011-04-03T20:30:00Z,30.2513,-88.0778,5.968,8.13,1111122 
DISL,ioos:station:DISL:DISL:1,2011-04-03T21:00:00Z,30.2513,-88.0778,5.956,8.23,1111122 
DISL,ioos:station:DISL:DISL:1,2011-04-03T21:30:00Z,30.2513,-88.0778,5.849,8.17,1111122 
DISL,ioos:station:DISL:DISL:1,2011-04-03T22:00:00Z,30.2513,-88.0778,5.753,8.1,1111122 
DISL,ioos:station:DISL:DISL:1,2011-04-03T22:30:00Z,30.2513,-88.0778,5.737,7.98,1111122 
DISL,ioos:station:DISL:DISL:1,2011-04-03T23:00:00Z,30.2513,-88.0778,5.729,7.9,1111122 
DISL,ioos:station:DISL:DISL:1,2011-04-03T23:30:00Z,30.2513,-88.0778,5.689,7.61,1111122 
DISL,ioos:station:DISL:DISL:1,2011-04-04T00:00:00Z,30.2513,-88.0778,5.658,7.36,1111122 
DISL,ioos:station:DISL:DISL:1,2011-04-04T00:30:00Z,30.2513,-88.0778,5.723,7.17,1111122 
DISL,ioos:station:DISL:DISL:1,2011-04-04T01:00:00Z,30.2513,-88.0778,5.648,6.93,1111122 
DISL,ioos:station:DISL:DISL:1,2011-04-04T01:30:00Z,30.2513,-88.0778,5.712,6.9,1111122 
DISL,ioos:station:DISL:DISL:1,2011-04-04T02:00:00Z,30.2513,-88.0778,5.664,6.88,1111122 
DISL,ioos:station:DISL:DISL:1,2011-04-04T02:30:00Z,30.2513,-88.0778,5.712,6.96,1111122 
DISL,ioos:station:DISL:DISL:1,2011-04-04T03:00:00Z,30.2513,-88.0778,5.746,7.17,1111122 
DISL,ioos:station:DISL:DISL:1,2011-04-04T03:30:00Z,30.2513,-88.0778,5.734,7.22,1111122 
DISL,ioos:station:DISL:DISL:1,2011-04-04T04:00:00Z,30.2513,-88.0778,5.891,7.34,1111122 
DISL,ioos:station:DISL:DISL:1,2011-04-04T04:30:00Z,30.2513,-88.0778,5.867,7.37,1111122 
DISL,ioos:station:DISL:DISL:1,2011-04-04T05:00:00Z,30.2513,-88.0778,5.962,7.33,1111122 
DISL,ioos:station:DISL:DISL:1,2011-04-04T05:30:00Z,30.2513,-88.0778,6.021,7.31,1111122 
DISL,ioos:station:DISL:DISL:1,2011-04-04T06:00:00Z,30.2513,-88.0778,5.981,7.47,1111122 
DISL,ioos:station:DISL:DISL:1,2011-04-04T06:30:00Z,30.2513,-88.0778,6.051,7.58,1111122 
DISL,ioos:station:DISL:DISL:1,2011-04-04T07:00:00Z,30.2513,-88.0778,6.204,7.46,1111122 
DISL,ioos:station:DISL:DISL:1,2011-04-04T07:30:00Z,30.2513,-88.0778,6.223,6.95,1111122 
DISL,ioos:station:DISL:DISL:1,2011-04-04T08:00:00Z,30.2513,-88.0778,6.23,7.02,1111122 
DISL,ioos:station:DISL:DISL:1,2011-04-04T08:30:00Z,30.2513,-88.0778,6.276,7.63,1111122 
DISL,ioos:station:DISL:DISL:1,2011-04-04T09:00:00Z,30.2513,-88.0778,6.412,7.86,1111122 
DISL,ioos:station:DISL:DISL:1,2011-04-04T09:30:00Z,30.2513,-88.0778,6.379,7.88,1111122 
DISL,ioos:station:DISL:DISL:1,2011-04-04T10:00:00Z,30.2513,-88.0778,6.537,7.89,1111122 
DISL,ioos:station:DISL:DISL:1,2011-04-04T10:30:00Z,30.2513,-88.0778,6.596,7.51,1111122 
DISL,ioos:station:DISL:DISL:1,2011-04-04T11:00:00Z,30.2513,-88.0778,6.524,8.41,1111122 
DISL,ioos:station:DISL:DISL:1,2011-04-04T11:30:00Z,30.2513,-88.0778,6.552,8.61,1111122 
DISL,ioos:station:DISL:DISL:1,2011-04-04T12:00:00Z,30.2513,-88.0778,6.743,8.75,1111122 
DISL,ioos:station:DISL:DISL:1,2011-04-04T12:30:00Z,30.2513,-88.0778,6.784,8.49,1111122 
DISL,ioos:station:DISL:DISL:1,2011-04-04T13:00:00Z,30.2513,-88.0778,6.853,9.35,1111122 
DISL,ioos:station:DISL:DISL:1,2011-04-04T13:30:00Z,30.2513,-88.0778,6.86,10.29,1111122 
DISL,ioos:station:DISL:DISL:1,2011-04-04T14:00:00Z,30.2513,-88.0778,6.824,10.25,1111122 
DISL,ioos:station:DISL:DISL:1,2011-04-04T14:30:00Z,30.2513,-88.0778,6.8,10.3,1111122 
DISL,ioos:station:DISL:DISL:1,2011-04-04T15:00:00Z,30.2513,-88.0778,6.917,10.49,1111122 
DISL,ioos:station:DISL:DISL:1,2011-04-04T15:30:00Z,30.2513,-88.0778,7.02,10.11,1111122 
DISL,ioos:station:DISL:DISL:1,2011-04-04T16:00:00Z,30.2513,-88.0778,6.946,9.96,1111122 
DISL,ioos:station:DISL:DISL:1,2011-04-04T16:30:00Z,30.2513,-88.0778,6.891,9.47,1111122 
DISL,ioos:station:DISL:DISL:1,2011-04-04T17:00:00Z,30.2513,-88.0778,6.978,8.34,1111122 
DISL,ioos:station:DISL:DISL:1,2011-04-04T17:30:00Z,30.2513,-88.0778,6.942,8.12,1111122 
DISL,ioos:station:DISL:DISL:1,2011-04-04T18:00:00Z,30.2513,-88.0778,7.01,7.79,1111122 
DISL,ioos:station:DISL:DISL:1,2011-04-04T18:30:00Z,30.2513,-88.0778,6.899,7.92,1111122 
DISL,ioos:station:DISL:DISL:1,2011-04-04T19:00:00Z,30.2513,-88.0778,6.885,8.09,1111122 
DISL,ioos:station:DISL:DISL:1,2011-04-04T19:30:00Z,30.2513,-88.0778,6.772,8.18,1111122 
DISL,ioos:station:DISL:DISL:1,2011-04-04T20:00:00Z,30.2513,-88.0778,6.619,8.11,1111122 
DISL,ioos:station:DISL:DISL:1,2011-04-04T20:30:00Z,30.2513,-88.0778,6.554,8.15,1111122 
DISL,ioos:station:DISL:DISL:1,2011-04-04T21:00:00Z,30.2513,-88.0778,6.486,8.56,1111122 
DISL,ioos:station:DISL:DISL:1,2011-04-04T21:30:00Z,30.2513,-88.0778,6.415,8.52,1111122 
DISL,ioos:station:DISL:DISL:1,2011-04-04T22:00:00Z,30.2513,-88.0778,6.326,7.83,1111122 
DISL,ioos:station:DISL:DISL:1,2011-04-04T22:30:00Z,30.2513,-88.0778,6.293,7.76,1111122 
DISL,ioos:station:DISL:DISL:1,2011-04-04T23:00:00Z,30.2513,-88.0778,6.113,7.53,1111122 
DISL,ioos:station:DISL:DISL:1,2011-04-04T23:30:00Z,30.2513,-88.0778,5.492,7.36,1111122 
DISL,ioos:station:DISL:DISL:1,2011-04-05T00:00:00Z,30.2513,-88.0778,5.983,7.4,1111122 
DISL,ioos:station:DISL:DISL:1,2011-04-05T00:30:00Z,30.2513,-88.0778,6.005,7.28,1111122 
DISL,ioos:station:DISL:DISL:1,2011-04-05T01:00:00Z,30.2513,-88.0778,6.019,7.37,1111122 
DISL,ioos:station:DISL:DISL:1,2011-04-05T01:30:00Z,30.2513,-88.0778,6.008,7.8,1111122 
DISL,ioos:station:DISL:DISL:1,2011-04-05T02:00:00Z,30.2513,-88.0778,6.046,7.87,1111122 
DISL,ioos:station:DISL:DISL:1,2011-04-05T02:30:00Z,30.2513,-88.0778,6.0,7.59,1111122 
DISL,ioos:station:DISL:DISL:1,2011-04-05T03:00:00Z,30.2513,-88.0778,6.137,7.63,1111122 
DISL,ioos:station:DISL:DISL:1,2011-04-05T03:30:00Z,30.2513,-88.0778,6.207,8.03,1111122 
DISL,ioos:station:DISL:DISL:1,2011-04-05T04:00:00Z,30.2513,-88.0778,6.587,8.02,1111122 
DISL,ioos:station:DISL:DISL:1,2011-04-05T04:30:00Z,30.2513,-88.0778,6.297,8.06,1111122 
DISL,ioos:station:DISL:DISL:1,2011-04-05T05:00:00Z,30.2513,-88.0778,7.07,8.04,1111122 
DISL,ioos:station:DISL:DISL:1,2011-04-05T05:30:00Z,30.2513,-88.0778,6.555,8.06,1111122 
DISL,ioos:station:DISL:DISL:1,2011-04-05T06:00:00Z,30.2513,-88.0778,6.667,7.95,1111122 
DISL,ioos:station:DISL:DISL:1,2011-04-05T06:30:00Z,30.2513,-88.0778,6.278,8.06,1111122 
DISL,ioos:station:DISL:DISL:1,2011-04-05T07:00:00Z,30.2513,-88.0778,6.322,7.45,1111122 
DISL,ioos:station:DISL:DISL:1,2011-04-05T07:30:00Z,30.2513,-88.0778,6.258,7.18,1111122 
DISL,ioos:station:DISL:DISL:1,2011-04-05T08:00:00Z,30.2513,-88.0778,6.645,7.55,1111122 
DISL,ioos:station:DISL:DISL:1,2011-04-05T08:30:00Z,30.2513,-88.0778,6.294,7.49,1111122 
DISL,ioos:station:DISL:DISL:1,2011-04-05T09:00:00Z,30.2513,-88.0778,5.731,7.39,1111122 
DISL,ioos:station:DISL:DISL:1,2011-04-05T09:30:00Z,30.2513,-88.0778,5.866,7.54,1111122 
DISL,ioos:station:DISL:DISL:1,2011-04-05T10:00:00Z,30.2513,-88.0778,5.634,7.46,1111122 
DISL,ioos:station:DISL:DISL:1,2011-04-05T10:30:00Z,30.2513,-88.0778,5.608,7.55,1111122 
DISL,ioos:station:DISL:DISL:1,2011-04-05T11:00:00Z,30.2513,-88.0778,6.04,7.49,1111122 
DISL,ioos:station:DISL:DISL:1,2011-04-05T11:30:00Z,30.2513,-88.0778,5.894,7.47,1111122 
DISL,ioos:station:DISL:DISL:1,2011-04-05T12:00:00Z,30.2513,-88.0778,5.672,7.63,1111122 
DISL,ioos:station:DISL:DISL:1,2011-04-05T12:30:00Z,30.2513,-88.0778,6.075,7.46,1111122 
DISL,ioos:station:DISL:DISL:1,2011-04-05T13:00:00Z,30.2513,-88.0778,5.726,7.5,1111122 
DISL,ioos:station:DISL:DISL:1,2011-04-05T13:30:00Z,30.2513,-88.0778,6.032,7.47,1111122 
DISL,ioos:station:DISL:DISL:1,2011-04-05T14:00:00Z,30.2513,-88.0778,6.343,7.48,1111122 
DISL,ioos:station:DISL:DISL:1,2011-04-05T14:30:00Z,30.2513,-88.0778,6.344,7.61,1111122 
DISL,ioos:station:DISL:DISL:1,2011-04-05T15:00:00Z,30.2513,-88.0778,6.362,7.46,1111122 
DISL,ioos:station:DISL:DISL:1,2011-04-05T15:30:00Z,30.2513,-88.0778,6.144,7.42,1111122 
DISL,ioos:station:DISL:DISL:1,2011-04-05T16:00:00Z,30.2513,-88.0778,6.066,7.43,1111122 
DISL,ioos:station:DISL:DISL:1,2011-04-05T16:30:00Z,30.2513,-88.0778,6.316,7.57,1111122 
DISL,ioos:station:DISL:DISL:1,2011-04-05T17:00:00Z,30.2513,-88.0778,6.285,7.86,1111122 
DISL,ioos:station:DISL:DISL:1,2011-04-05T17:30:00Z,30.2513,-88.0778,6.335,7.94,1111122 
DISL,ioos:station:DISL:DISL:1,2011-04-05T18:00:00Z,30.2513,-88.0778,6.298,7.99,1111122 
DISL,ioos:station:DISL:DISL:1,2011-04-05T18:30:00Z,30.2513,-88.0778,6.254,7.98,1111122 
DISL,ioos:station:DISL:DISL:1,2011-04-05T19:00:00Z,30.2513,-88.0778,6.303,7.97,1111122 
DISL,ioos:station:DISL:DISL:1,2011-04-05T19:30:00Z,30.2513,-88.0778,6.344,7.99,1111122 
DISL,ioos:station:DISL:DISL:1,2011-04-05T20:00:00Z,30.2513,-88.0778,6.299,8.06,1111122 
DISL,ioos:station:DISL:DISL:1,2011-04-05T20:30:00Z,30.2513,-88.0778,6.308,8.07,1111122 
DISL,ioos:station:DISL:DISL:1,2011-04-05T21:00:00Z,30.2513,-88.0778,6.24,8.07,1111122 
DISL,ioos:station:DISL:DISL:1,2011-04-05T21:30:00Z,30.2513,-88.0778,6.187,8.02,1111122 
DISL,ioos:station:DISL:DISL:1,2011-04-05T22:00:00Z,30.2513,-88.0778,6.115,8.0,1111122 
DISL,ioos:station:DISL:DISL:1,2011-04-05T22:30:00Z,30.2513,-88.0778,6.018,8.04,1111122 
DISL,ioos:station:DISL:DISL:1,2011-04-05T23:00:00Z,30.2513,-88.0778,6.019,7.61,1111122 
DISL,ioos:station:DISL:DISL:1,2011-04-05T23:30:00Z,30.2513,-88.0778,5.853,5.61,1111122 
DISL,ioos:station:DISL:DISL:1,2011-04-06T00:00:00Z,30.2513,-88.0778,5.834,5.63,1111122 
DISL,ioos:station:DISL:DISL:1,2011-04-06T00:30:00Z,30.2513,-88.0778,5.725,6.0,1111122 
DISL,ioos:station:DISL:DISL:1,2011-04-06T01:00:00Z,30.2513,-88.0778,5.679,5.99,1111122 
DISL,ioos:station:DISL:DISL:1,2011-04-06T01:30:00Z,30.2513,-88.0778,5.598,6.25,1111122 
DISL,ioos:station:DISL:DISL:1,2011-04-06T02:00:00Z,30.2513,-88.0778,5.566,6.18,1111122 
DISL,ioos:station:DISL:DISL:1,2011-04-06T02:30:00Z,30.2513,-88.0778,5.757,5.1,1111122 
DISL,ioos:station:DISL:DISL:1,2011-04-06T03:00:00Z,30.2513,-88.0778,5.486,4.86,1111122 
DISL,ioos:station:DISL:DISL:1,2011-04-06T03:30:00Z,30.2513,-88.0778,5.421,4.69,1111122 
DISL,ioos:station:DISL:DISL:1,2011-04-06T04:00:00Z,30.2513,-88.0778,5.403,4.6,1111122 
DISL,ioos:station:DISL:DISL:1,2011-04-06T04:30:00Z,30.2513,-88.0778,5.306,4.4,1111122 
DISL,ioos:station:DISL:DISL:1,2011-04-06T05:00:00Z,30.2513,-88.0778,5.384,4.33,1111122 
DISL,ioos:station:DISL:DISL:1,2011-04-06T05:30:00Z,30.2513,-88.0778,5.423,4.21,1111122 
DISL,ioos:station:DISL:DISL:1,2011-04-06T06:00:00Z,30.2513,-88.0778,5.425,4.02,1111122 
DISL,ioos:station:DISL:DISL:1,2011-04-06T06:30:00Z,30.2513,-88.0778,5.452,4.07,1111122 
DISL,ioos:station:DISL:DISL:1,2011-04-06T07:00:00Z,30.2513,-88.0778,5.555,4.25,1111122 
DISL,ioos:station:DISL:DISL:1,2011-04-06T07:30:00Z,30.2513,-88.0778,5.573,4.27,1111122 
DISL,ioos:station:DISL:DISL:1,2011-04-06T08:00:00Z,30.2513,-88.0778,5.595,4.39,1111122 
DISL,ioos:station:DISL:DISL:1,2011-04-06T08:30:00Z,30.2513,-88.0778,5.659,4.63,1111122 
DISL,ioos:station:DISL:DISL:1,2011-04-06T09:00:00Z,30.2513,-88.0778,5.72,4.54,1111122 
DISL,ioos:station:DISL:DISL:1,2011-04-06T09:30:00Z,30.2513,-88.0778,5.746,4.27,1111122 
DISL,ioos:station:DISL:DISL:1,2011-04-06T10:00:00Z,30.2513,-88.0778,5.853,4.24,1111122 
DISL,ioos:station:DISL:DISL:1,2011-04-06T10:30:00Z,30.2513,-88.0778,5.821,4.89,1111122 
DISL,ioos:station:DISL:DISL:1,2011-04-06T11:00:00Z,30.2513,-88.0778,5.891,5.53,1111122 
DISL,ioos:station:DISL:DISL:1,2011-04-06T11:30:00Z,30.2513,-88.0778,5.986,9.78,1111122 
DISL,ioos:station:DISL:DISL:1,2011-04-06T12:00:00Z,30.2513,-88.0778,6.091,13.01,1111122 
DISL,ioos:station:DISL:DISL:1,2011-04-06T12:30:00Z,30.2513,-88.0778,6.092,14.4,1111122 
DISL,ioos:station:DISL:DISL:1,2011-04-06T13:00:00Z,30.2513,-88.0778,6.324,15.32,1111122 
DISL,ioos:station:DISL:DISL:1,2011-04-06T13:30:00Z,30.2513,-88.0778,6.141,13.95,1111122 
DISL,ioos:station:DISL:DISL:1,2011-04-06T14:00:00Z,30.2513,-88.0778,6.266,15.76,1111122 
DISL,ioos:station:DISL:DISL:1,2011-04-06T14:30:00Z,30.2513,-88.0778,6.485,14.97,1111122 
DISL,ioos:station:DISL:DISL:1,2011-04-06T15:00:00Z,30.2513,-88.0778,6.644,15.34,1111122 
DISL,ioos:station:DISL:DISL:1,2011-04-06T15:30:00Z,30.2513,-88.0778,6.631,15.88,1111122 